Wind_Speed
13 14 14 15 15 15 15 15 15 15 15 15 15 14 13 12 12 11 10 11 11 11 10 9 10 10 10 10 10 9 10 9 9 9 10 11 12 12 12 12 12 12 12 12
13 14 13 15 16 16 16 16 15 15 15 17 17 16 15 15 13 13 12 12 12 12 11 10 11 11 11 11 11 11 11 10 10 11 11 11 12 12 12 12 13 13 13 13
14 14 15 16 16 17 17 16 16 15 16 18 19 17 17 16 16 14 14 14 13 12 12 12 13 13 12 12 12 11 10 10 11 11 11 12 13 13 12 12 13 14 13 13
16 15 15 16 16 17 17 16 17 17 18 18 18 18 16 16 16 16 16 15 14 13 13 13 14 14 13 13 12 13 11 12 12 12 12 12 12 13 13 13 14 14 14 14
17 17 17 17 17 17 16 16 17 18 19 19 17 18 17 17 16 16 16 15 15 14 14 14 14 14 14 13 13 14 13 13 13 13 13 13 13 13 13 13 14 14 14 14
18 18 18 17 17 17 17 17 17 18 19 18 17 19 18 17 15 16 15 15 15 15 16 16 15 15 15 14 13 13 14 15 14 14 14 13 13 14 14 14 15 14 14 14
19 19 18 18 18 17 17 17 19 19 19 19 18 19 18 17 16 16 16 16 16 17 17 17 16 15 15 15 14 14 14 14 14 14 14 14 14 13 13 14 15 14 14 15
19 19 18 18 18 18 18 19 20 20 20 20 20 20 18 17 17 16 16 17 17 17 17 16 15 15 16 15 14 14 13 13 14 14 14 15 14 14 14 14 15 14 14 15
18 18 18 19 19 20 20 20 21 21 22 22 22 21 19 18 17 17 16 16 16 15 16 16 15 16 15 15 15 14 14 14 14 14 15 15 15 15 15 15 15 14 14 14
19 18 19 20 21 21 21 21 21 21 22 23 22 21 19 17 16 17 17 17 16 16 16 16 16 16 16 15 15 15 15 15 15 15 15 16 16 15 15 15 16 15 15 14
20 20 20 21 22 22 22 22 22 22 22 23 23 22 20 18 17 17 17 17 17 17 16 17 17 17 17 16 15 16 17 17 17 17 17 18 18 17 16 16 16 16 15 15
21 21 21 22 22 22 23 23 23 24 24 24 24 23 21 20 19 18 18 18 18 18 18 18 18 18 18 18 17 17 17 18 18 18 18 19 18 18 18 17 17 17 16 17
22 23 22 23 23 24 24 24 25 25 25 25 25 23 22 21 20 20 20 19 18 17 18 19 19 18 18 19 19 19 18 18 18 18 18 18 18 18 18 18 19 19 19 18
24 24 24 25 24 25 25 25 26 26 26 26 24 23 23 22 21 20 20 19 19 19 18 18 19 20 20 20 21 21 20 20 20 19 19 18 18 18 19 19 20 21 21 20
27 27 27 27 26 27 28 27 27 27 27 28 26 24 23 23 22 21 21 20 20 20 20 20 21 21 22 22 22 22 22 21 21 20 19 19 18 18 18 19 20 21 22 21
28 28 28 28 28 28 29 28 28 28 28 29 27 25 24 24 23 22 23 23 22 22 22 22 22 22 22 23 23 23 22 22 22 21 20 20 20 20 19 19 19 20 20 20
29 29 29 28 28 29 30 29 30 30 30 30 29 27 26 25 25 25 25 25 24 24 24 24 24 23 23 23 23 23 23 23 22 22 21 20 20 20 20 20 19 20 20 21
31 31 31 30 30 32 30 29 30 31 31 30 30 29 28 26 26 27 27 26 25 25 24 24 24 24 24 23 23 23 23 23 23 23 22 21 21 21 21 21 21 21 21 22
32 32 32 33 33 33 31 30 30 30 31 30 30 29 29 28 28 28 28 27 26 25 25 25 25 25 25 25 24 23 24 24 24 23 23 23 23 23 23 23 22 22 23 23
32 33 33 33 34 34 32 31 31 31 32 31 31 30 29 28 27 27 28 28 28 27 26 26 26 26 26 26 25 25 25 25 24 24 23 23 23 24 24 24 24 23 24 24
32 33 33 33 34 34 33 32 32 32 31 30 30 29 29 29 28 27 28 28 28 27 26 26 25 26 26 26 26 25 25 26 25 25 24 24 24 24 25 25 24 24 25 25
31 32 32 32 33 33 33 33 33 33 32 31 31 31 30 30 29 28 28 27 27 27 27 26 25 25 26 26 26 26 27 27 27 26 25 25 24 24 24 25 25 25 26 26
29 29 29 30 31 31 32 32 33 33 33 32 32 31 30 29 28 27 27 26 27 28 28 28 27 27 27 26 26 27 28 28 28 28 27 26 25 25 26 26 26 27 26 26
26 27 27 28 29 29 30 30 31 31 31 32 32 31 31 31 30 29 29 28 27 28 29 29 29 29 28 28 28 27 27 28 28 28 28 27 27 27 27 26 26 27 27 27
26 26 26 26 27 27 28 29 29 30 30 30 30 30 30 29 29 29 29 29 28 28 29 29 29 29 29 28 29 29 29 29 28 27 28 28 28 27 26 26 26 25 25 25
24 25 25 24 24 26 26 27 28 28 29 29 29 28 28 28 28 29 30 29 29 29 29 29 28 28 28 28 29 29 29 29 28 27 27 27 27 27 26 25 25 25 25 25
Wind_Direction
239 240 243 243 240 240 245 244 243 243 247 251 255 257 258 259 264 268 274 278 280 283 281 276 284 287 283 276 276 270 266 267 265 265 266 266 268 270 270 265 258 255 260 261
240 241 243 242 243 243 245 244 244 246 249 254 256 258 259 264 264 269 277 280 282 282 279 279 282 285 288 281 275 267 267 266 264 265 264 264 266 268 270 266 259 256 258 259
245 241 243 244 244 243 243 245 246 248 250 256 259 260 260 262 265 266 273 279 282 276 276 279 284 282 282 276 272 268 266 267 266 266 264 261 264 267 268 265 262 259 258 258
242 243 244 244 245 244 244 246 248 251 253 258 263 262 260 264 268 268 272 277 280 276 274 276 279 280 278 274 269 265 269 270 268 267 268 265 265 264 264 265 263 261 260 260
239 241 242 242 243 243 244 246 248 251 253 258 263 266 264 268 270 268 272 275 275 271 272 276 277 276 275 277 275 267 274 272 269 267 267 268 268 267 267 272 269 263 262 260
241 241 244 242 240 243 243 244 248 253 253 258 262 266 269 271 272 271 270 272 273 272 272 274 276 274 273 273 275 271 273 271 268 267 268 271 270 271 270 272 270 265 263 262
244 242 243 242 239 242 244 246 251 256 257 262 264 269 271 272 273 275 272 272 273 272 269 273 278 273 273 274 276 274 272 269 265 265 266 268 269 270 271 270 272 269 266 264
249 244 243 243 243 246 248 249 253 257 260 264 266 269 272 273 276 278 277 277 277 273 267 272 276 275 273 272 273 273 274 269 267 264 264 264 266 265 267 269 268 268 268 264
252 248 246 248 246 246 248 249 253 257 260 263 265 269 272 275 280 284 282 280 280 276 269 268 271 273 272 271 269 267 272 273 269 267 266 264 264 262 264 266 269 266 264 266
252 250 246 248 248 248 250 251 252 254 259 263 266 271 275 276 282 284 282 282 280 277 273 268 270 270 268 269 267 267 272 273 269 268 269 269 268 266 264 263 265 266 265 265
254 252 248 248 249 249 250 250 252 255 259 264 268 272 277 280 281 283 284 283 280 277 273 268 271 268 264 264 265 268 272 270 271 270 271 271 273 268 265 264 263 264 265 263
254 253 250 250 250 251 252 252 253 256 260 264 268 271 275 278 278 279 283 285 281 280 274 270 268 267 265 264 265 268 268 269 269 270 271 271 270 268 266 265 264 264 265 265
255 255 252 250 249 250 253 252 253 257 260 264 267 270 273 276 279 278 278 280 278 276 272 271 268 266 266 266 267 269 269 270 271 271 270 271 270 269 270 269 267 265 265 265
255 256 255 253 253 253 253 254 255 257 260 264 267 271 273 275 277 276 275 277 275 272 270 270 270 268 268 269 271 271 271 271 272 272 273 272 271 271 271 270 268 265 264 262
255 255 255 255 255 254 254 255 256 258 260 263 266 269 272 273 274 274 271 272 273 273 273 273 273 269 269 270 271 271 270 269 269 270 271 270 269 271 274 273 270 267 263 259
257 258 258 257 255 256 255 255 257 259 261 264 266 268 269 270 270 272 270 270 272 274 275 276 277 273 272 271 271 270 269 268 269 270 270 270 269 270 271 272 269 264 261 258
258 259 259 258 258 259 258 258 259 260 262 264 265 266 267 269 268 270 271 270 271 272 274 275 275 275 275 274 272 270 267 266 270 270 268 268 268 269 269 269 268 263 259 259
259 260 260 259 259 259 261 262 261 260 261 263 263 264 265 267 268 269 269 269 270 270 272 272 274 275 275 274 271 269 266 266 269 270 267 266 266 267 268 267 267 264 260 259
259 261 261 261 261 262 261 262 262 261 261 261 262 262 264 265 267 268 269 270 270 270 270 271 273 273 272 271 270 269 268 267 268 268 265 265 266 267 268 267 266 264 261 259
258 260 261 261 262 263 262 261 261 262 262 262 262 261 262 263 264 267 269 270 270 270 269 270 271 272 271 269 268 268 268 266 266 266 264 264 265 266 267 267 265 263 262 261
257 260 261 261 261 262 262 262 261 261 262 261 261 260 260 261 263 265 268 269 266 268 269 269 270 271 269 269 268 268 268 268 269 267 264 264 265 265 265 265 264 263 263 262
260 261 261 261 261 261 261 262 261 261 261 260 261 261 260 260 260 262 264 266 264 266 268 268 270 271 269 267 267 267 269 268 268 268 265 265 265 266 266 264 262 261 261 261
263 263 263 262 262 262 261 261 262 262 261 259 260 258 259 259 262 264 264 264 265 267 268 268 268 270 270 269 267 267 267 268 267 266 264 263 264 266 265 265 263 261 260 260
264 264 266 264 262 262 261 261 260 260 260 258 257 258 259 261 264 265 266 265 266 267 266 265 266 267 268 268 268 267 267 266 264 262 263 263 263 263 262 263 263 261 260 259
262 263 267 268 265 263 262 263 263 261 261 258 258 258 259 260 261 262 263 263 266 268 267 267 267 267 268 268 267 266 266 266 263 263 262 261 262 261 260 260 261 261 260 259
264 264 266 267 265 263 263 264 265 263 262 260 258 257 258 260 261 263 263 265 267 268 268 269 267 266 267 267 268 266 264 264 264 265 263 261 260 260 260 259 261 262 261 260
Height
5839 5841 5842 5843 5845 5846 5847 5849 5850 5852 5852 5852 5852 5853 5854 5854 5854 5854 5854 5854 5854 5853 5853 5852 5851 5851 5850 5849 5850 5850 5850 5850 5850 5850 5850 5850 5850 5850 5851 5851 5851 5851 5852 5852
5837 5838 5840 5840 5841 5842 5844 5846 5847 5849 5849 5849 5849 5850 5851 5851 5851 5852 5852 5852 5851 5850 5850 5849 5849 5849 5848 5847 5847 5847 5847 5847 5847 5847 5847 5847 5847 5847 5848 5848 5848 5848 5848 5849
5833 5836 5836 5837 5838 5839 5841 5842 5844 5845 5845 5845 5846 5847 5848 5848 5848 5849 5849 5849 5849 5848 5847 5847 5846 5846 5845 5844 5844 5844 5844 5844 5844 5844 5844 5844 5844 5844 5844 5845 5845 5845 5845 5845
5830 5832 5833 5834 5835 5836 5838 5839 5840 5841 5841 5842 5843 5843 5845 5845 5845 5846 5846 5846 5845 5845 5845 5844 5843 5843 5842 5841 5840 5841 5840 5841 5841 5841 5840 5840 5841 5841 5841 5841 5841 5841 5841 5841
5826 5828 5829 5830 5832 5833 5835 5835 5836 5837 5837 5838 5839 5839 5841 5841 5842 5842 5843 5842 5842 5842 5841 5840 5840 5839 5839 5838 5836 5836 5837 5837 5837 5837 5837 5837 5837 5837 5837 5837 5837 5837 5837 5838
5823 5824 5825 5827 5828 5829 5831 5832 5832 5833 5833 5834 5836 5836 5837 5838 5838 5838 5839 5838 5838 5838 5837 5836 5836 5836 5835 5835 5834 5834 5834 5834 5833 5834 5834 5833 5833 5834 5834 5834 5833 5833 5834 5834
5818 5819 5821 5822 5823 5825 5827 5828 5829 5829 5829 5830 5832 5832 5834 5834 5834 5834 5834 5834 5834 5834 5833 5833 5832 5832 5832 5831 5831 5831 5830 5830 5830 5830 5830 5830 5830 5830 5830 5830 5830 5830 5830 5831
5814 5816 5817 5818 5819 5821 5822 5824 5825 5825 5826 5827 5827 5827 5830 5830 5830 5829 5829 5829 5829 5829 5829 5828 5828 5828 5828 5828 5828 5827 5827 5827 5826 5826 5826 5827 5827 5827 5827 5826 5826 5826 5827 5827
5810 5812 5813 5814 5816 5817 5818 5819 5820 5821 5821 5822 5822 5824 5825 5825 5825 5825 5824 5824 5824 5824 5824 5824 5824 5824 5824 5824 5824 5824 5824 5823 5823 5822 5822 5822 5823 5823 5823 5823 5823 5823 5824 5824
5806 5808 5810 5810 5811 5812 5814 5815 5815 5816 5816 5817 5818 5819 5820 5820 5821 5820 5820 5820 5820 5819 5819 5819 5819 5819 5819 5820 5820 5820 5820 5819 5819 5818 5818 5819 5818 5818 5818 5819 5819 5819 5820 5820
5802 5803 5805 5805 5806 5807 5809 5810 5810 5811 5811 5812 5813 5816 5816 5816 5816 5816 5815 5815 5815 5815 5814 5815 5814 5814 5814 5815 5815 5815 5815 5815 5814 5814 5814 5814 5814 5814 5814 5814 5815 5815 5816 5817
5797 5798 5799 5800 5801 5802 5803 5804 5805 5806 5807 5807 5808 5812 5810 5811 5811 5811 5810 5810 5809 5809 5809 5809 5809 5809 5809 5810 5810 5810 5810 5810 5809 5809 5809 5809 5808 5809 5809 5809 5810 5810 5811 5812
5791 5792 5793 5794 5797 5797 5797 5798 5799 5801 5802 5802 5802 5806 5805 5805 5806 5806 5805 5805 5804 5804 5803 5803 5803 5803 5803 5804 5804 5804 5804 5804 5804 5804 5804 5803 5803 5803 5804 5804 5804 5805 5806 5807
5785 5786 5788 5789 5790 5790 5791 5792 5793 5794 5795 5796 5797 5798 5799 5799 5800 5800 5800 5799 5799 5798 5798 5797 5798 5797 5797 5797 5798 5797 5798 5798 5798 5798 5798 5798 5798 5798 5798 5798 5799 5799 5800 5801
5778 5779 5780 5782 5783 5784 5785 5786 5787 5788 5789 5790 5791 5792 5793 5793 5793 5794 5793 5793 5793 5792 5792 5791 5791 5791 5791 5791 5791 5791 5791 5791 5792 5792 5792 5792 5792 5792 5792 5793 5793 5793 5794 5795
5770 5771 5773 5774 5775 5776 5777 5779 5780 5781 5782 5783 5784 5786 5787 5787 5787 5787 5787 5787 5787 5786 5785 5785 5784 5784 5784 5784 5784 5784 5784 5784 5785 5785 5785 5786 5786 5786 5786 5787 5787 5787 5788 5789
5762 5764 5765 5766 5768 5768 5769 5771 5772 5774 5774 5776 5777 5780 5779 5780 5780 5780 5780 5780 5780 5779 5779 5778 5777 5777 5777 5777 5777 5777 5777 5778 5778 5778 5778 5779 5779 5779 5780 5780 5781 5781 5782 5783
5754 5755 5756 5758 5760 5759 5764 5763 5764 5765 5767 5768 5769 5770 5772 5772 5772 5772 5773 5773 5772 5772 5771 5771 5770 5770 5770 5770 5770 5770 5770 5770 5770 5771 5771 5772 5772 5772 5773 5773 5774 5775 5776 5777
5746 5747 5748 5749 5749 5751 5754 5755 5756 5757 5758 5759 5761 5762 5763 5764 5764 5765 5765 5765 5765 5764 5764 5764 5763 5763 5763 5763 5763 5763 5763 5763 5763 5763 5763 5764 5765 5765 5766 5766 5767 5768 5769 5770
5736 5738 5740 5740 5741 5742 5746 5746 5747 5749 5749 5751 5752 5753 5754 5755 5757 5758 5757 5757 5757 5756 5756 5756 5756 5755 5755 5755 5755 5756 5756 5756 5756 5756 5756 5756 5757 5758 5758 5759 5760 5761 5762 5763
5727 5728 5729 5730 5731 5733 5735 5736 5738 5740 5742 5742 5743 5744 5746 5747 5748 5749 5749 5749 5748 5748 5748 5748 5748 5748 5747 5748 5748 5748 5748 5748 5748 5748 5748 5749 5749 5750 5751 5751 5752 5754 5755 5756
5718 5719 5720 5721 5722 5726 5726 5727 5729 5730 5732 5733 5734 5735 5737 5738 5739 5740 5740 5740 5740 5740 5740 5740 5740 5740 5740 5740 5740 5740 5740 5740 5740 5740 5741 5741 5741 5742 5743 5744 5745 5746 5747 5748
5709 5711 5711 5713 5715 5715 5716 5717 5718 5719 5722 5724 5725 5726 5728 5729 5730 5731 5731 5731 5731 5732 5732 5732 5732 5732 5732 5731 5731 5732 5732 5731 5731 5732 5732 5733 5733 5734 5735 5736 5737 5738 5739 5740
5701 5702 5703 5703 5705 5706 5707 5708 5709 5710 5712 5713 5715 5717 5718 5720 5721 5721 5722 5722 5723 5723 5723 5723 5723 5723 5723 5723 5723 5722 5722 5722 5722 5722 5723 5724 5725 5725 5726 5727 5729 5730 5731 5732
5694 5695 5695 5695 5697 5697 5699 5699 5700 5701 5702 5704 5705 5707 5708 5710 5711 5712 5713 5714 5714 5714 5713 5714 5714 5714 5714 5714 5714 5713 5713 5713 5713 5713 5714 5715 5716 5717 5718 5719 5720 5722 5723 5724
5687 5687 5688 5688 5689 5690 5691 5691 5692 5693 5694 5695 5696 5698 5699 5701 5702 5703 5704 5704 5704 5704 5704 5704 5704 5704 5704 5704 5704 5704 5704 5704 5704 5705 5706 5707 5708 5709 5710 5711 5712 5713 5715 5716